Regional Weather Roundup
Issued by NWS

Home | Current Version | Previous Version | Text Only | Print | Product List | Glossary Off
Versions: 1 2 3 4 5 6 7 8 9 10 11 12 13 14 15 16 17 18 19 20 21 22 23 24 25 26 27 28 29 30 31 32 33 34 35 36 37 38 39 40 41 42 43 44 45 46 47 48 49 50

000
ASUS45 KBOU 242010
RWRCO

WEATHER ROUNDUP FOR COLORADO
NATIONAL WEATHER SERVICE DENVER/BOULDER CO
200 PM MDT SAT SEP 24 2016

NOTE: "FAIR" INDICATES FEW OR NO CLOUDS BELOW 12000 FEET WITH NO
SIGNIFICANT WEATHER AND/OR OBSTRUCTIONS TO VISIBILITY.

COZ001>005-013-030-031-242100-
...NORTHWEST COLORADO...

CITY           SKY/WX    TMP DP  RH WIND       PRES   REMARKS
CRAIG          LGT RAIN  45  40  82 W13       30.20R
HAYDEN         CLOUDY    45  36  70 W10       30.19R
MEEKER         CLOUDY    49  40  71 W13       30.21S
MOUNT WERNER   NOT AVBL
STEAMBOAT SPGS CLOUDY    42  38  85 CALM      30.18F
WALDEN           N/A     46  28  49 SW22      30.16S
$$

COZ006>008-011-242100-
...WEST CENTRAL VALLEYS...

CITY           SKY/WX    TMP DP  RH WIND       PRES   REMARKS
GRAND JUNCTION CLOUDY    58  43  57 N8        30.19S
MONTROSE       CLOUDY    54  36  50 N7        30.24R
EAGLE          PTSUNNY   52  36  54 SW16G24   30.21S
RIFLE          LGT RAIN  52  44  74 VRB3      30.21S
DELTA          CLOUDY    58  38  47 CALM      30.21S
NUCLA          CLOUDY    55  32  41 CALM      30.26S
$$

COZ017>023-064>068-242100-
...SOUTHWEST COLORADO...

CITY           SKY/WX    TMP DP  RH WIND       PRES   REMARKS
DURANGO        CLOUDY    56  31  38 W12       30.20F
CORTEZ         FAIR      58  34  40 CALM      30.21F
PAGOSA SPRINGS CLOUDY    52  30  42 CALM      30.23F
TELLURIDE      CLOUDY    43  32  64 W8        30.32S
WOLF CREEK PAS CLOUDY    30  30 100 S5        30.39S WCI  25
$$

COZ009-010-012-014-032>034-037-058>063-242100-
...CENTRAL COLORADO...

CITY           SKY/WX    TMP DP  RH WIND       PRES   REMARKS
ASPEN          CLOUDY    49  35  58 N13G22    30.20S
BUENA VISTA    FAIR      55  23  28 W20G29    30.18R
COPPER MTN     CLOUDY    34  27  75 NW18G24   30.28F WCI  23
BERTHOUD PASS  CLOUDY    27  12  54 W17G23    30.28R WCI  14
COTTONWOOD PAS PTSUNNY   45  23  42 W12G21    30.25R
GUNNISON       CLOUDY    44  34  67 N5        30.26R
KREMMLING      CLOUDY    52  28  40 SW17      30.19S
LEADVILLE      LGT RAIN  39  26  59 NW13G22   30.24R
MONARCH PASS   CLOUDY    28  27  93 W26G32    30.41R WCI  13
SALIDA         PTSUNNY   53  29  40 SW21G32   30.27R
SUNLIGHT       FOG       34  32  93 MISG      30.33S VSB 1/2
WILKERSON PASS CLOUDY    39  21  48 SW7       30.29R
$$

COZ069>075-242100-
...SAN LUIS VALLEY/SANGRE DE CRISTO MOUNTAINS...

CITY           SKY/WX    TMP DP  RH WIND       PRES   REMARKS
ALAMOSA        FAIR      58  27  30 VRB7      30.17F
LA VETA PASS   FAIR      46  27  46 MISG      30.27S
SAGUACHE       NOT AVBL
$$

COZ035-036-038>040-242100-
...NORTHERN COLORADO FRONT RANGE...

CITY           SKY/WX    TMP DP  RH WIND       PRES   REMARKS
DENVER INTL AP FAIR      68  20  16 CALM      30.00F
DMNS CITY PARK   N/A     72  25  17 SW3G10    29.99F
AURORA         MOSUNNY   69  22  16 S6        30.01F
FRONT RANGE AP MOSUNNY   72  19  14 W9        30.01F
ERIE MUNI ARPT PTSUNNY   66  24  20 NW14G23   30.00S
BOULDER MUN AP FAIR      66  28  24 W13G20    30.01F
CENTENNIAL     FAIR      66  22  18 CALM      30.01F
BROOMFIELD     MOSUNNY   66  21  18 W7        30.03F
FORT COLLINS   FAIR      64  28  25 NW5       30.00S
LONGMONT       PTSUNNY   72  26  18 W14G21    30.02S
$$

COZ041-046-047-076>085-087-088-242100-
...PIKES PEAK/PALMER DIVIDE AND SOUTHERN FOOTHILLS...

CITY           SKY/WX    TMP DP  RH WIND       PRES   REMARKS
COLO. SPRINGS  FAIR      68  22  17 VRB5      30.04F
A. F. ACADEMY  FAIR      64  21  19 W6        30.04F
SCHRIEVER AFB  NOT AVBL
ELLICOTT       FAIR     N/A N/A N/A VRB7      30.03F
FALCON         FAIR      65  19  17 SW12      30.08F
FORT CARSON    FAIR      69  24  18 W7        30.01F
LIMON          FAIR      70  21  15 VRB3      30.00F
MONUMENT HILL  FAIR      63  23  22 SW6       30.09S
TRINIDAD       FAIR      71  19  14 N9        30.04F
$$

COZ042>045-048>051-090-091-242100-
...NORTHEAST COLORADO...

CITY           SKY/WX    TMP DP  RH WIND       PRES   REMARKS
GREELEY ARPT   FAIR      68  30  24 W9        30.00F
AKRON          FAIR      70  25  18 W9G21     29.98F
BURLINGTON     FAIR      70  36  28 S6        30.00F
WRAY           NOT AVBL
STERLING       FAIR      72  30  21 S6        29.96F
HOLYOKE        FAIR      77  32  19 CALM      29.97F
FORT MORGAN    FAIR      72  21  14 W8G16     29.99F
$$

COZ086-089-092>099-242100-
...SOUTHEAST COLORADO...

CITY           SKY/WX    TMP DP  RH WIND       PRES   REMARKS
PUEBLO         FAIR      73  21  14 S5        29.98F
LA JUNTA       FAIR      74  24  15 SE6       29.99F
LAMAR          FAIR      75  34  22 VRB5      29.97F
SPRINGFIELD    NOT AVBL
$$



USA.gov is the U.S. government's official web portal to all federal, state and local government web resources and services.